Time,TemperatureF,DewpointF,PressureIn,WindDirection,WindDirectionDegrees,WindSpeedMPH,WindSpeedGustMPH,Humidity,HourlyPrecipIn,Conditions,Clouds,dailyrainin,SoftwareType,DateUTC
2013-09-18 00:00:00,49.0,45.0,29.94,NNW,340,18.0,-999.0,86,-99.99,,,-99.99,,2013-09-18 00:00:00,
2013-09-18 00:42:00,49.0,45.0,29.94,NNW,340,18.0,-999.0,86,-99.99,,,-99.99,,2013-09-18 00:42:00,
2013-09-18 00:52:00,49.0,45.0,29.94,NNW,340,18.0,-999.0,86,-99.99,,,-99.99,,2013-09-18 00:52:00,
2013-09-18 01:00:00,49.0,43.0,29.93,NNW,340,18.0,-999.0,78,-99.99,,,-99.99,,2013-09-18 01:00:00,
2013-09-18 01:42:00,49.0,43.0,29.93,NNW,340,18.0,-999.0,78,-99.99,,,-99.99,,2013-09-18 01:42:00,
2013-09-18 01:52:00,49.0,43.0,29.93,NNW,340,18.0,-999.0,78,-99.99,,,-99.99,,2013-09-18 01:52:00,
2013-09-18 02:00:00,48.0,43.0,29.95,NW,320,20.0,-999.0,81,-99.99,,,-99.99,,2013-09-18 02:00:00,
2013-09-18 02:42:00,48.0,43.0,29.95,NW,320,20.0,-999.0,81,-99.99,,,-99.99,,2013-09-18 02:42:00,
2013-09-18 02:52:00,48.0,43.0,29.95,NW,320,20.0,-999.0,81,-99.99,,,-99.99,,2013-09-18 02:52:00,
2013-09-18 03:00:00,49.0,43.0,29.95,NW,320,20.0,-999.0,78,-99.99,,,-99.99,,2013-09-18 03:00:00,
2013-09-18 03:44:00,49.0,43.0,29.95,NW,320,20.0,-999.0,78,-99.99,,,-99.99,,2013-09-18 03:44:00,
2013-09-18 03:54:00,49.0,43.0,29.95,NW,320,20.0,-999.0,78,-99.99,,,-99.99,,2013-09-18 03:54:00,
2013-09-18 04:00:00,48.0,44.0,29.96,NW,320,24.0,-999.0,88,-99.99,,,-99.99,,2013-09-18 04:00:00,
2013-09-18 04:43:00,48.0,44.0,29.96,NW,320,24.0,-999.0,88,-99.99,,,-99.99,,2013-09-18 04:43:00,
2013-09-18 04:54:00,48.0,44.0,29.96,NW,320,24.0,-999.0,88,-99.99,,,-99.99,,2013-09-18 04:54:00,
2013-09-18 05:00:00,49.0,45.0,29.95,NW,320,18.0,-999.0,86,-99.99,,,-99.99,,2013-09-18 05:00:00,
2013-09-18 05:42:00,49.0,45.0,29.95,NW,320,18.0,-999.0,86,-99.99,,,-99.99,,2013-09-18 05:42:00,
2013-09-18 05:52:00,49.0,45.0,29.95,NW,320,18.0,-999.0,86,-99.99,,,-99.99,,2013-09-18 05:52:00,
2013-09-18 06:00:00,49.0,44.0,29.95,NNW,330,30.0,-999.0,84,-99.99,,,-99.99,,2013-09-18 06:00:00,
2013-09-18 06:42:00,49.0,44.0,29.95,NNW,330,30.0,-999.0,84,-99.99,,,-99.99,,2013-09-18 06:42:00,
2013-09-18 06:52:00,49.0,44.0,29.95,NNW,330,30.0,-999.0,84,-99.99,,,-99.99,,2013-09-18 06:52:00,
2013-09-18 07:00:00,49.0,43.0,29.94,NW,320,31.0,-999.0,79,-99.99,,,-99.99,,2013-09-18 07:00:00,
2013-09-18 07:42:00,49.0,43.0,29.94,NW,320,31.0,-999.0,79,-99.99,,,-99.99,,2013-09-18 07:42:00,
2013-09-18 07:52:00,49.0,43.0,29.94,NW,320,31.0,-999.0,79,-99.99,,,-99.99,,2013-09-18 07:52:00,
2013-09-18 08:00:00,50.0,41.0,29.93,NNW,340,28.0,-999.0,71,-99.99,,,-99.99,,2013-09-18 08:00:00,
2013-09-18 08:42:00,50.0,41.0,29.93,NNW,340,28.0,-999.0,71,-99.99,,,-99.99,,2013-09-18 08:42:00,
2013-09-18 08:52:00,50.0,41.0,29.93,NNW,340,28.0,-999.0,71,-99.99,,,-99.99,,2013-09-18 08:52:00,
2013-09-18 09:00:00,49.0,44.0,29.93,NNW,330,34.0,-999.0,79,-99.99,,,-99.99,,2013-09-18 09:00:00,
2013-09-18 09:43:00,49.0,44.0,29.93,NNW,330,34.0,-999.0,79,-99.99,,,-99.99,,2013-09-18 09:43:00,
2013-09-18 09:53:00,49.0,44.0,29.93,NNW,330,34.0,-999.0,79,-99.99,,,-99.99,,2013-09-18 09:53:00,
2013-09-18 10:00:00,49.0,44.0,29.91,NNW,330,36.0,-999.0,81,-99.99,,,-99.99,,2013-09-18 10:00:00,
2013-09-18 10:42:00,49.0,44.0,29.91,NNW,330,36.0,-999.0,81,-99.99,,,-99.99,,2013-09-18 10:42:00,
2013-09-18 10:53:00,49.0,44.0,29.91,NNW,330,36.0,-999.0,81,-99.99,,,-99.99,,2013-09-18 10:53:00,
2013-09-18 11:00:00,50.0,43.0,29.88,NW,320,36.0,-999.0,78,-99.99,,,-99.99,,2013-09-18 11:00:00,
2013-09-18 11:42:00,50.0,43.0,29.88,NW,320,36.0,-999.0,78,-99.99,,,-99.99,,2013-09-18 11:42:00,
2013-09-18 11:52:00,50.0,43.0,29.88,NW,320,36.0,-999.0,78,-99.99,,,-99.99,,2013-09-18 11:52:00,
2013-09-18 12:00:00,50.0,42.0,29.89,NW,320,36.0,-999.0,74,-99.99,,,-99.99,,2013-09-18 12:00:00,
2013-09-18 12:42:00,50.0,42.0,29.89,NW,320,36.0,-999.0,74,-99.99,,,-99.99,,2013-09-18 12:42:00,
2013-09-18 12:52:00,50.0,42.0,29.89,NW,320,36.0,-999.0,74,-99.99,,,-99.99,,2013-09-18 12:52:00,